ZL1TQN Weather Reports


Display with metric or nautical units.
time (UTC)temp
F
wind
direction
speed
MPH
gust
MPH
rain 1hr
in
rain 24hr
in
rain mn
in
humidity
%
barometer
mb
20260510041006 64 275 6.0 17.0 0.00 0.40 0.00 70 1001.5
20260510040006 65 243 7.0 17.0 0.00 0.40 0.00 69 1001.5
20260510035506 65 245 6.0 14.0 0.00 0.40 0.00 70 1001.4
20260510034005 65 252 8.0 20.0 0.00 0.40 0.00 68 1001.3
20260510033506 66 244 9.0 15.0 0.00 0.40 0.00 68 1001.2
20260510033006 66 235 5.0 14.0 0.00 0.40 0.00 69 1001.4
20260510032506 66 241 7.0 20.0 0.00 0.40 0.00 68 1001.4
20260510032005 66 230 9.0 20.0 0.00 0.40 0.00 68 1001.4
20260510031006 66 229 7.0 18.0 0.00 0.40 0.00 68 1001.4
20260510030006 65 234 7.0 18.0 0.00 0.40 0.00 70 1001.3
20260510025505 65 243 6.0 18.0 0.00 0.40 0.00 70 1001.2
20260510025005 65 262 9.0 17.0 0.00 0.40 0.00 70 1001.1
20260510024506 65 265 7.0 16.0 0.00 0.40 0.00 71 1001.1
20260510024005 65 215 2.0 9.0 0.00 0.40 0.00 74 1001.3
20260510023505 64 249 5.0 12.0 0.00 0.40 0.00 73 1001.4
20260510023006 64 257 4.0 12.0 0.00 0.40 0.00 73 1001.3
20260510022506 64 276 4.0 12.0 0.00 0.40 0.00 74 1001.1
20260510022006 63 272 5.0 12.0 0.00 0.40 0.00 73 1001.2
20260510021505 63 249 4.0 13.0 0.00 0.40 0.00 74 1001.3
20260510021006 63 247 4.0 16.0 0.00 0.40 0.00 74 1001.3
20260510020005 63 258 5.0 12.0 0.00 0.40 0.00 74 1001.3
20260510015505 63 253 6.0 18.0 0.00 0.40 0.00 73 1001.2
20260510015006 63 262 8.0 18.0 0.00 0.40 0.00 72 1001.2
20260510014505 63 263 7.0 17.0 0.00 0.40 0.00 72 1001.4
20260510014005 63 251 5.0 13.0 0.00 0.40 0.00 74 1001.4
20260510013506 63 247 7.0 22.0 0.00 0.40 0.00 73 1001.5
20260510013006 63 244 9.0 22.0 0.00 0.40 0.00 73 1001.5
20260510012505 63 253 13.0 22.0 0.00 0.40 0.00 72 1001.5
20260510012006 64 247 6.0 14.0 0.00 0.40 0.00 74 1001.5
20260510010006 63 248 11.0 22.0 0.00 0.40 0.00 72 1001.5
20260510005006 64 250 14.0 23.0 0.00 0.40 0.00 71 1001.5
20260510004006 64 260 6.0 22.0 0.00 0.40 0.00 73 1001.5
20260510003506 64 257 10.0 22.0 0.00 0.40 0.00 72 1001.5
20260510003006 63 256 7.0 21.0 0.00 0.40 0.00 73 1001.5
20260510002505 64 260 10.0 15.0 0.00 0.40 0.00 72 1001.5
20260510001505 63 250 7.0 17.0 0.00 0.40 0.00 73 1001.5
20260510001005 63 249 6.0 15.0 0.00 0.40 0.00 74 1001.6
20260510000005 63 265 13.0 18.0 0.00 0.40 0.00 72 1001.9
20260509235505 63 248 5.0 17.0 0.00 0.40 0.00 74 1002.0
20260509235005 62 259 5.0 20.0 0.00 0.40 0.00 74 1002.0
20260509234505 62 236 7.0 20.0 0.00 0.40 0.00 75 1002.0
20260509234005 62 255 10.0 20.0 0.00 0.40 0.00 75 1002.0
20260509233506 62 242 9.0 16.0 0.00 0.40 0.00 76 1002.1
20260509233005 61 253 8.0 16.0 0.00 0.40 0.00 75 1002.1
20260509232005 61 240 8.0 18.0 0.00 0.40 0.00 76 1002.4
20260509231506 60 244 10.0 18.0 0.00 0.40 0.00 76 1002.5
20260509231005 60 248 8.0 15.0 0.00 0.40 0.00 76 1002.5
20260509230006 60 242 6.0 15.0 0.00 0.40 0.00 77 1002.6
20260509225506 60 245 3.0 13.0 0.00 0.40 0.00 78 1002.6
20260509225006 60 233 9.0 13.0 0.00 0.40 0.00 76 1002.6
20260509224505 60 260 6.0 13.0 0.00 0.40 0.00 78 1002.5
20260509224005 60 256 5.0 13.0 0.00 0.40 0.00 77 1002.5
20260509223005 60 225 2.0 9.0 0.00 0.40 0.00 78 1002.5
20260509222505 60 277 3.0 12.0 0.00 0.40 0.00 78 1002.5
20260509221505 60 264 4.0 14.0 0.00 0.40 0.00 78 1002.5
20260509221005 60 256 9.0 14.0 0.00 0.40 0.00 76 1002.5
20260509220005 60 243 6.0 13.0 0.00 0.40 0.00 79 1002.5
20260509215505 59 259 5.0 10.0 0.00 0.40 0.00 79 1002.5
20260509215005 59 239 3.0 9.0 0.00 0.40 0.00 81 1002.5
20260509214505 59 235 2.0 9.0 0.00 0.40 0.00 81 1002.5
20260509214005 59 218 2.0 10.0 0.00 0.40 0.00 81 1002.5
20260509213505 58 259 4.0 10.0 0.00 0.40 0.00 81 1002.5
20260509213005 58 246 4.0 10.0 0.00 0.40 0.00 83 1002.5
20260509212505 57 205 3.0 7.0 0.00 0.40 0.00 85 1002.5
20260509212005 57 309 1.0 3.0 0.00 0.40 0.00 85 1002.5
20260509211005 56 339 1.0 5.0 0.00 0.40 0.00 85 1002.5
20260509210005 55 301 2.0 3.0 0.00 0.40 0.00 86 1002.5
20260509205505 55 321 1.0 6.0 0.00 0.40 0.00 86 1002.5
20260509205006 55 271 2.0 6.0 0.00 0.40 0.00 87 1002.5
20260509204506 54 306 1.0 6.0 0.00 0.40 0.00 88 1002.5
20260509203505 53 330 4.0 8.0 0.00 0.40 0.00 89 1002.6
20260509203005 52 318 2.0 5.0 0.00 0.40 0.00 89 1002.6
20260509202506 52 315 2.0 5.0 0.00 0.40 0.00 90 1002.6
20260509201006 51 278 1.0 3.0 0.00 0.40 0.00 91 1002.6
20260509200005 50 288 1.0 2.0 0.00 0.40 0.00 92 1002.7
20260509195505 50 325 1.0 2.0 0.00 0.40 0.00 92 1002.6
20260509193506 49 265 1.0 3.0 0.00 0.40 0.00 93 1002.6
20260509193005 49 279 0.0 2.0 0.00 0.40 0.00 93 1002.6
20260509192506 48 267 1.0 2.0 0.00 0.40 0.00 92 1002.6
20260509192005 49 249 1.0 2.0 0.00 0.40 0.00 93 1002.6
20260509191505 48 222 0.0 2.0 0.00 0.40 0.00 92 1002.6
20260509191005 48 190 0.0 2.0 0.00 0.40 0.00 91 1002.6
20260509190006 49 197 1.0 2.0 0.00 0.41 0.00 90 1002.5
20260509185505 50 249 1.0 2.0 0.00 0.41 0.00 92 1002.3
20260509185005 49 269 1.0 2.0 0.00 0.41 0.00 92 1002.4
20260509183505 50 293 1.0 1.0 0.00 0.41 0.00 91 1002.6
20260509182005 50 293 0.0 1.0 0.00 0.41 0.00 90 1002.6
20260509181005 50 293 0.0 1.0 0.00 0.41 0.00 90 1002.5
20260509180005 51 265 1.0 3.0 0.00 0.41 0.00 90 1002.5
20260509175505 51 269 1.0 3.0 0.00 0.41 0.00 90 1002.5
20260509175005 51 234 1.0 3.0 0.00 0.41 0.00 90 1002.5
20260509174505 51 264 0.0 2.0 0.00 0.41 0.00 90 1002.5
20260509174005 51 264 1.0 2.0 0.00 0.41 0.00 89 1002.4
20260509173505 51 268 0.0 2.0 0.00 0.41 0.00 90 1002.2
20260509172505 51 252 1.0 3.0 0.00 0.41 0.00 90 1002.1
20260509171505 51 213 0.0 3.0 0.00 0.41 0.00 90 1002.1
20260509171005 51 256 1.0 3.0 0.00 0.41 0.00 90 1002.0
20260509165505 51 249 1.0 3.0 0.00 0.41 0.00 91 1002.0
20260509165005 51 262 0.0 3.0 0.00 0.41 0.00 91 1002.0
20260509163005 52 314 0.0 2.0 0.00 0.41 0.00 90 1002.0
20260509162005 52 272 1.0 3.0 0.00 0.41 0.00 91 1002.0
20260509161505 52 225 1.0 2.0 0.00 0.41 0.00 91 1002.0
20260509161005 52 248 1.0 2.0 0.00 0.41 0.00 90 1002.0
20260509160005 53 258 1.0 3.0 0.00 0.41 0.00 90 1002.0
20260509155505 53 266 1.0 3.0 0.00 0.41 0.00 90 1002.1
20260509155005 53 255 2.0 3.0 0.00 0.41 0.00 91 1002.0
20260509154505 53 280 1.0 3.0 0.00 0.42 0.00 91 1002.1
20260509154005 53 311 1.0 3.0 0.00 0.42 0.00 90 1002.3
20260509153505 53 277 1.0 3.0 0.00 0.43 0.00 90 1002.3
20260509152505 54 254 2.0 3.0 0.00 0.51 0.00 91 1002.1
20260509152005 54 270 1.0 3.0 0.00 0.51 0.00 91 1002.1
20260509151005 53 259 3.0 5.0 0.00 0.52 0.00 92 1002.4
20260509145005 54 263 1.0 2.0 0.00 0.62 0.00 91 1002.3
20260509144505 54 270 0.0 3.0 0.00 0.69 0.00 91 1002.4
20260509144004 54 255 1.0 3.0 0.00 0.69 0.00 92 1002.4
20260509143505 54 243 2.0 3.0 0.00 0.69 0.00 92 1002.4
20260509142505 54 282 1.0 3.0 0.00 0.69 0.00 91 1002.4
20260509142005 54 271 1.0 3.0 0.00 0.69 0.00 91 1002.5
20260509141505 55 278 1.0 3.0 0.00 0.70 0.00 91 1002.5
20260509141005 55 275 1.0 3.0 0.00 0.70 0.00 92 1002.5
20260509135505 55 242 1.0 3.0 0.00 0.72 0.00 92 1002.5
20260509135005 55 255 1.0 3.0 0.00 0.72 0.00 92 1002.5
20260509134505 55 236 1.0 2.0 0.00 0.72 0.00 91 1002.5
20260509134005 55 270 1.0 3.0 0.00 0.73 0.00 91 1002.5
20260509133505 55 288 0.0 3.0 0.00 0.73 0.00 92 1002.5
20260509133005 55 266 1.0 3.0 0.00 0.75 0.00 92 1002.5
20260509132504 55 273 1.0 3.0 0.00 0.76 0.00 92 1002.5
20260509132005 55 325 2.0 3.0 0.00 0.76 0.00 92 1002.5
20260509131505 55 307 1.0 3.0 0.00 0.77 0.00 92 1002.8
20260509131005 55 285 1.0 3.0 0.00 0.77 0.00 92 1003.0
20260509130004 55 290 1.0 3.0 0.00 0.77 0.00 93 1003.0
20260509125507 55 287 1.0 3.0 0.40 0.77 0.00 93 1003.0
20260509124505 54 240 0.0 0.0 0.40 0.78 0.00 93 1003.1
20260509124005 54 268 0.0 0.0 0.40 0.80 0.00 93 1003.1
20260509123005 54 190 0.0 0.0 0.40 0.80 0.00 93 1003.0
20260509122005 54 233 0.0 0.0 0.40 0.80 0.00 93 1003.0
20260509121505 54 233 0.0 0.0 0.40 0.80 0.00 92 1003.0
20260509121005 55 194 0.0 0.0 0.00 0.80 0.40 92 1003.0
20260509115505 55 179 0.0 0.0 0.00 0.50 0.40 92 1003.0
20260509115005 55 179 0.0 0.0 0.00 0.50 0.40 92 1003.0
20260509114505 55 179 0.0 0.0 0.00 0.50 0.40 92 1003.0
20260509114005 55 179 0.0 0.0 0.00 0.50 0.40 91 1002.9
20260509113504 55 170 0.0 0.0 0.00 0.50 0.40 91 1003.0
20260509112004 56 170 0.0 0.0 0.00 0.50 0.40 91 1003.0
20260509111504 55 170 0.0 0.0 0.00 0.50 0.40 92 1003.0
20260509110005 55 145 0.0 0.0 0.00 0.50 0.40 92 1003.0
20260509105005 55 167 0.0 0.0 0.00 0.50 0.40 91 1003.1
20260509104505 56 140 0.0 0.0 0.00 0.50 0.40 91 1003.2
20260509104005 56 140 0.0 0.0 0.00 0.50 0.40 91 1003.4
20260509103505 56 174 0.0 0.0 0.00 0.50 0.40 90 1003.4
20260509103005 56 339 0.0 0.0 0.00 0.50 0.40 90 1003.5
20260509102505 56 339 0.0 0.0 0.00 0.50 0.40 90 1003.5
20260509102005 56 339 0.0 0.0 0.00 0.50 0.40 89 1003.5
20260509101504 56 339 0.0 0.0 0.00 0.50 0.40 89 1003.6
20260509101005 57 315 0.0 0.0 0.00 0.50 0.40 89 1003.7
20260509100005 57 148 0.0 0.0 0.00 0.50 0.40 88 1003.7
20260509095504 57 148 0.0 0.0 0.00 0.50 0.40 88 1003.9
20260509095005 57 150 0.0 0.0 0.00 0.50 0.40 87 1004.0
20260509094004 57 330 0.0 2.0 0.00 0.50 0.40 87 1003.9
20260509092504 57 249 1.0 3.0 0.00 0.50 0.40 87 1004.1
20260509092004 57 262 0.0 0.0 0.00 0.50 0.40 87 1004.1
20260509091504 57 254 0.0 0.0 0.00 0.50 0.40 87 1004.1
20260509091004 56 224 0.0 0.0 0.00 0.50 0.40 87 1004.1
20260509085504 57 205 0.0 0.0 0.00 0.50 0.40 86 1003.9
20260509085005 57 205 0.0 0.0 0.00 0.50 0.40 86 1003.8
20260509084504 57 205 0.0 0.0 0.00 0.50 0.40 85 1003.6
20260509084004 57 233 0.0 0.0 0.00 0.51 0.40 85 1003.6
20260509083504 57 174 0.0 0.0 0.00 0.51 0.40 85 1003.6
20260509083006 57 165 0.0 0.0 0.00 0.51 0.40 85 1003.6
20260509082506 58 133 0.0 0.0 0.00 0.51 0.40 85 1003.6
20260509082006 58 158 0.0 0.0 0.00 0.51 0.40 84 1003.6
20260509081006 58 185 0.0 0.0 0.00 0.51 0.40 84 1003.6
20260509080006 58 221 0.0 0.0 0.00 0.51 0.40 85 1003.6
20260509075506 58 204 0.0 0.0 0.00 0.51 0.40 85 1003.6
20260509075006 58 185 0.0 0.0 0.00 0.51 0.40 84 1003.6
20260509074506 58 222 0.0 0.0 0.00 0.51 0.40 84 1003.6
20260509074006 58 223 0.0 0.0 0.00 0.51 0.40 84 1003.6
20260509072506 58 253 0.0 1.0 0.00 0.51 0.40 84 1003.5
20260509072006 59 268 0.0 2.0 0.00 0.51 0.40 83 1003.6
20260509071006 59 226 0.0 3.0 0.00 0.51 0.40 82 1003.6
20260509070006 59 266 2.0 5.0 0.00 0.51 0.40 82 1003.5
20260509065506 59 303 2.0 5.0 0.00 0.51 0.40 82 1003.5
20260509065006 59 266 2.0 5.0 0.00 0.51 0.40 82 1003.4
20260509064506 59 253 2.0 3.0 0.00 0.51 0.40 82 1003.2
20260509064006 59 244 0.0 2.0 0.00 0.51 0.40 82 1003.1
20260509063506 60 281 0.0 3.0 0.00 0.51 0.40 82 1003.1
20260509062006 60 273 2.0 3.0 0.00 0.51 0.40 82 1003.1
20260509061006 60 291 1.0 5.0 0.00 0.51 0.40 81 1003.0
20260509060005 61 272 2.0 5.0 0.00 0.51 0.40 80 1003.0
20260509054505 61 313 0.0 3.0 0.00 0.51 0.40 80 1003.0
20260509054006 61 279 1.0 3.0 0.00 0.51 0.40 79 1003.0
20260509053506 62 297 1.0 5.0 0.00 0.51 0.40 79 1003.1
20260509053006 62 272 2.0 5.0 0.00 0.51 0.40 79 1003.1
20260509052505 62 283 1.0 3.0 0.00 0.51 0.40 79 1003.0
20260509051506 62 302 0.0 3.0 0.00 0.51 0.40 79 1003.0
20260509045505 63 285 2.0 9.0 0.00 0.51 0.40 78 1003.0
20260509045006 63 280 4.0 9.0 0.00 0.51 0.40 78 1003.0
20260509044505 63 287 3.0 8.0 0.00 0.51 0.40 77 1003.0
20260509044006 63 280 4.0 12.0 0.00 0.51 0.40 76 1003.0
20260509042505 64 279 3.0 7.0 0.00 0.51 0.40 76 1003.0
20260509041506 64 291 3.0 10.0 0.00 0.51 0.40 75 1003.0